User: anonymous   Login
Location: Christchurch
(43.5330°S, 172.6330°E)
Time: 15:40:20
(UTC+13:00)
Language:

Cosmos 1862 Rocket - Orbit

View from above orbital plane
View from above orbital plane
View from above satellite
View from above satellite

Ground track
Ground track

The orbit data is extracted from the following two-line orbital elements,

1 18153U 87055B   19321.69106583 +.00000063 +00000-0 +47225-5 0  9991
2 18153 082.5004 354.9578 0022845 055.4600 304.8767 14.83270753728249
Epoch (UTC): 17 November 2019 16:35:08
Eccentricity: 0.0022845
inclination: 82.5004°
perigee height: 603 km
apogee height: 635 km
right ascension of ascending node: 354.9578°
argument of perigee: 55.4600°
revolutions per day: 14.83270753
mean anomaly at epoch: 304.8767°
orbit number at epoch: 72824

The dashed part of the orbit path shows where the satellite is in the earth's shadow,  

DLR